owner,sensor,date,latitude,longitude,vertical_datum,mass_concentration_of_oxygen_in_sea_water,qcFlag 
SCCF RECON,ioos:station:SCCF:16:1,2008-07-01T00:00:00Z,26.4345,-81.9647,2.203,6.52,1111122 
SCCF RECON,ioos:station:SCCF:16:1,2008-07-01T01:00:00Z,26.4345,-81.9647,2.389,6.84,1111122 
SCCF RECON,ioos:station:SCCF:16:1,2008-07-01T02:00:00Z,26.4345,-81.9647,2.494,7.06,1111122 
SCCF RECON,ioos:station:SCCF:16:1,2008-07-01T03:00:00Z,26.4345,-81.9647,2.565,6.76,1111122 
SCCF RECON,ioos:station:SCCF:16:1,2008-07-01T04:00:00Z,26.4345,-81.9647,2.683,6.77,1111122 
SCCF RECON,ioos:station:SCCF:16:1,2008-07-01T05:00:00Z,26.4345,-81.9647,2.662,6.6,1111122 
SCCF RECON,ioos:station:SCCF:16:1,2008-07-01T06:00:00Z,26.4345,-81.9647,2.645,6.57,1111122 
SCCF RECON,ioos:station:SCCF:16:1,2008-07-01T07:00:00Z,26.4345,-81.9647,2.497,5.96,1111122 
SCCF RECON,ioos:station:SCCF:16:1,2008-07-01T08:00:00Z,26.4345,-81.9647,2.477,5.97,1111122 
SCCF RECON,ioos:station:SCCF:16:1,2008-07-01T09:00:00Z,26.4345,-81.9647,2.444,6.02,1111122 
SCCF RECON,ioos:station:SCCF:16:1,2008-07-01T10:00:00Z,26.4345,-81.9647,2.484,5.8,1111122 
SCCF RECON,ioos:station:SCCF:16:1,2008-07-01T11:00:00Z,26.4345,-81.9647,2.673,6.22,1111122 
SCCF RECON,ioos:station:SCCF:16:1,2008-07-01T12:00:00Z,26.4345,-81.9647,2.867,6.04,1111122 
SCCF RECON,ioos:station:SCCF:16:1,2008-07-01T13:00:00Z,26.4345,-81.9647,2.936,6.02,1111122 
SCCF RECON,ioos:station:SCCF:16:1,2008-07-01T14:00:00Z,26.4345,-81.9647,2.956,6.14,1111122 
SCCF RECON,ioos:station:SCCF:16:1,2008-07-01T15:00:00Z,26.4345,-81.9647,2.975,6.17,1111122 
SCCF RECON,ioos:station:SCCF:16:1,2008-07-01T16:00:00Z,26.4345,-81.9647,2.929,6.16,1111122 
SCCF RECON,ioos:station:SCCF:16:1,2008-07-01T17:00:00Z,26.4345,-81.9647,2.815,6.15,1111122 
SCCF RECON,ioos:station:SCCF:16:1,2008-07-01T18:00:00Z,26.4345,-81.9647,2.606,6.48,1111122 
SCCF RECON,ioos:station:SCCF:16:1,2008-07-01T19:00:00Z,26.4345,-81.9647,2.36,6.45,1111122 
SCCF RECON,ioos:station:SCCF:16:1,2008-07-01T20:00:00Z,26.4345,-81.9647,2.077,6.93,1111122 
SCCF RECON,ioos:station:SCCF:16:1,2008-07-01T21:00:00Z,26.4345,-81.9647,1.865,6.83,1111122 
SCCF RECON,ioos:station:SCCF:16:1,2008-07-01T22:00:00Z,26.4345,-81.9647,1.718,7.11,1111122 
SCCF RECON,ioos:station:SCCF:16:1,2008-07-01T23:00:00Z,26.4345,-81.9647,1.718,7.68,1111122 
SCCF RECON,ioos:station:SCCF:16:1,2008-07-02T00:00:00Z,26.4345,-81.9647,1.896,7.53,1111122 
SCCF RECON,ioos:station:SCCF:16:1,2008-07-02T01:00:00Z,26.4345,-81.9647,2.189,7.03,1111122 
SCCF RECON,ioos:station:SCCF:16:1,2008-07-02T02:00:00Z,26.4345,-81.9647,2.352,6.91,1111122 
SCCF RECON,ioos:station:SCCF:16:1,2008-07-02T03:00:00Z,26.4345,-81.9647,2.457,6.8,1111122 
SCCF RECON,ioos:station:SCCF:16:1,2008-07-02T04:00:00Z,26.4345,-81.9647,2.604,6.71,1111122 
SCCF RECON,ioos:station:SCCF:16:1,2008-07-02T05:00:00Z,26.4345,-81.9647,2.782,6.66,1111122 
SCCF RECON,ioos:station:SCCF:16:1,2008-07-02T06:00:00Z,26.4345,-81.9647,2.594,6.54,1111122 
SCCF RECON,ioos:station:SCCF:16:1,2008-07-02T07:00:00Z,26.4345,-81.9647,2.629,6.48,1111122 
SCCF RECON,ioos:station:SCCF:16:1,2008-07-02T08:00:00Z,26.4345,-81.9647,2.568,6.43,1111122 
SCCF RECON,ioos:station:SCCF:16:1,2008-07-02T09:00:00Z,26.4345,-81.9647,2.576,6.58,1111122 
SCCF RECON,ioos:station:SCCF:16:1,2008-07-02T10:00:00Z,26.4345,-81.9647,2.503,6.35,1111122 
SCCF RECON,ioos:station:SCCF:16:1,2008-07-02T11:00:00Z,26.4345,-81.9647,2.53,6.13,1111122 
SCCF RECON,ioos:station:SCCF:16:1,2008-07-02T12:00:00Z,26.4345,-81.9647,2.656,6.34,1111122 
SCCF RECON,ioos:station:SCCF:16:1,2008-07-02T13:00:00Z,26.4345,-81.9647,2.836,6.37,1111122 
SCCF RECON,ioos:station:SCCF:16:1,2008-07-02T14:00:00Z,26.4345,-81.9647,2.952,6.28,1111122 
SCCF RECON,ioos:station:SCCF:16:1,2008-07-02T16:00:00Z,26.4345,-81.9647,2.994,6.32,1111122 
SCCF RECON,ioos:station:SCCF:16:1,2008-07-02T17:00:00Z,26.4345,-81.9647,2.945,6.38,1111122 
SCCF RECON,ioos:station:SCCF:16:1,2008-07-02T18:00:00Z,26.4345,-81.9647,2.823,6.37,1111122 
SCCF RECON,ioos:station:SCCF:16:1,2008-07-02T19:00:00Z,26.4345,-81.9647,2.513,6.29,1111122 
SCCF RECON,ioos:station:SCCF:16:1,2008-07-02T20:00:00Z,26.4345,-81.9647,2.277,6.3,1111122 
SCCF RECON,ioos:station:SCCF:16:1,2008-07-02T21:00:00Z,26.4345,-81.9647,2.042,6.38,1111122 
SCCF RECON,ioos:station:SCCF:16:1,2008-07-02T22:00:00Z,26.4345,-81.9647,1.795,6.6,1111122 
SCCF RECON,ioos:station:SCCF:16:1,2008-07-02T23:00:00Z,26.4345,-81.9647,1.676,6.56,1111122 
SCCF RECON,ioos:station:SCCF:16:1,2008-07-03T00:00:00Z,26.4345,-81.9647,1.686,6.67,1111122 
SCCF RECON,ioos:station:SCCF:16:1,2008-07-03T01:00:00Z,26.4345,-81.9647,1.923,5.94,1111122 
SCCF RECON,ioos:station:SCCF:16:1,2008-07-03T02:00:00Z,26.4345,-81.9647,2.174,6.09,1111122 
SCCF RECON,ioos:station:SCCF:16:1,2008-07-03T03:00:00Z,26.4345,-81.9647,2.342,6.17,1111122 
SCCF RECON,ioos:station:SCCF:16:1,2008-07-03T04:00:00Z,26.4345,-81.9647,2.519,6.22,1111122 
SCCF RECON,ioos:station:SCCF:16:1,2008-07-03T05:00:00Z,26.4345,-81.9647,2.701,6.24,1111122 
SCCF RECON,ioos:station:SCCF:16:1,2008-07-03T06:00:00Z,26.4345,-81.9647,2.673,6.18,1111122 
SCCF RECON,ioos:station:SCCF:16:1,2008-07-03T07:00:00Z,26.4345,-81.9647,2.633,6.13,1111122 
SCCF RECON,ioos:station:SCCF:16:1,2008-07-03T08:00:00Z,26.4345,-81.9647,2.565,6.02,1111122 
SCCF RECON,ioos:station:SCCF:16:1,2008-07-03T09:00:00Z,26.4345,-81.9647,2.47,5.87,1111122 
SCCF RECON,ioos:station:SCCF:16:1,2008-07-03T10:00:00Z,26.4345,-81.9647,2.436,5.78,1111122 
SCCF RECON,ioos:station:SCCF:16:1,2008-07-03T11:00:00Z,26.4345,-81.9647,2.528,5.8,1111122 
SCCF RECON,ioos:station:SCCF:16:1,2008-07-03T12:00:00Z,26.4345,-81.9647,2.561,5.84,1111122 
SCCF RECON,ioos:station:SCCF:16:1,2008-07-03T13:00:00Z,26.4345,-81.9647,2.657,5.96,1111122 
SCCF RECON,ioos:station:SCCF:16:1,2008-07-03T14:00:00Z,26.4345,-81.9647,2.894,6.12,1111122 
SCCF RECON,ioos:station:SCCF:16:1,2008-07-03T15:00:00Z,26.4345,-81.9647,3.002,6.23,1111122 
SCCF RECON,ioos:station:SCCF:16:1,2008-07-03T16:00:00Z,26.4345,-81.9647,3.016,6.28,1111122 
SCCF RECON,ioos:station:SCCF:16:1,2008-07-03T17:00:00Z,26.4345,-81.9647,3.079,6.31,1111122 
SCCF RECON,ioos:station:SCCF:16:1,2008-07-03T18:00:00Z,26.4345,-81.9647,3.008,6.26,1111122 
SCCF RECON,ioos:station:SCCF:16:1,2008-07-03T19:00:00Z,26.4345,-81.9647,2.793,6.28,1111122 
SCCF RECON,ioos:station:SCCF:16:1,2008-07-03T20:00:00Z,26.4345,-81.9647,2.565,6.35,1111122 
SCCF RECON,ioos:station:SCCF:16:1,2008-07-03T21:00:00Z,26.4345,-81.9647,2.314,6.48,1111122 
SCCF RECON,ioos:station:SCCF:16:1,2008-07-03T22:00:00Z,26.4345,-81.9647,2.075,6.41,1111122 
SCCF RECON,ioos:station:SCCF:16:1,2008-07-03T23:00:00Z,26.4345,-81.9647,1.818,6.46,1111122 
SCCF RECON,ioos:station:SCCF:16:1,2008-07-04T00:00:00Z,26.4345,-81.9647,1.716,6.46,1111122 
SCCF RECON,ioos:station:SCCF:16:1,2008-07-04T01:00:00Z,26.4345,-81.9647,1.832,6.52,1111122 
SCCF RECON,ioos:station:SCCF:16:1,2008-07-04T02:00:00Z,26.4345,-81.9647,2.131,5.82,1111122 
SCCF RECON,ioos:station:SCCF:16:1,2008-07-04T03:00:00Z,26.4345,-81.9647,2.232,5.93,1111122 
SCCF RECON,ioos:station:SCCF:16:1,2008-07-04T04:00:00Z,26.4345,-81.9647,2.395,6.44,1111122 
SCCF RECON,ioos:station:SCCF:16:1,2008-07-04T05:00:00Z,26.4345,-81.9647,2.531,6.46,1111122 
SCCF RECON,ioos:station:SCCF:16:1,2008-07-04T06:00:00Z,26.4345,-81.9647,2.611,6.46,1111122 
SCCF RECON,ioos:station:SCCF:16:1,2008-07-04T07:00:00Z,26.4345,-81.9647,2.664,6.5,1111122 
SCCF RECON,ioos:station:SCCF:16:1,2008-07-04T08:00:00Z,26.4345,-81.9647,2.597,6.28,1111122 
SCCF RECON,ioos:station:SCCF:16:1,2008-07-04T09:00:00Z,26.4345,-81.9647,2.521,6.03,1111122 
SCCF RECON,ioos:station:SCCF:16:1,2008-07-04T10:00:00Z,26.4345,-81.9647,2.453,5.95,1111122 
SCCF RECON,ioos:station:SCCF:16:1,2008-07-04T11:00:00Z,26.4345,-81.9647,2.407,5.85,1111122 
SCCF RECON,ioos:station:SCCF:16:1,2008-07-04T12:00:00Z,26.4345,-81.9647,2.406,5.88,1111122 
SCCF RECON,ioos:station:SCCF:16:1,2008-07-04T13:00:00Z,26.4345,-81.9647,2.495,5.92,1111122 
SCCF RECON,ioos:station:SCCF:16:1,2008-07-04T14:00:00Z,26.4345,-81.9647,2.684,6.19,1111122 
SCCF RECON,ioos:station:SCCF:16:1,2008-07-04T15:00:00Z,26.4345,-81.9647,2.835,6.45,1111122 
SCCF RECON,ioos:station:SCCF:16:1,2008-07-04T16:00:00Z,26.4345,-81.9647,2.948,6.51,1111122 
SCCF RECON,ioos:station:SCCF:16:1,2008-07-04T17:00:00Z,26.4345,-81.9647,3.0,6.66,1111122 
SCCF RECON,ioos:station:SCCF:16:1,2008-07-04T18:00:00Z,26.4345,-81.9647,3.013,6.85,1111122 
SCCF RECON,ioos:station:SCCF:16:1,2008-07-04T19:00:00Z,26.4345,-81.9647,2.946,6.96,1111122 
SCCF RECON,ioos:station:SCCF:16:1,2008-07-04T20:00:00Z,26.4345,-81.9647,2.799,7.0,1111122 
SCCF RECON,ioos:station:SCCF:16:1,2008-07-04T21:00:00Z,26.4345,-81.9647,2.556,7.22,1111122 
SCCF RECON,ioos:station:SCCF:16:1,2008-07-04T22:00:00Z,26.4345,-81.9647,2.304,7.08,1111122 
SCCF RECON,ioos:station:SCCF:16:1,2008-07-04T23:00:00Z,26.4345,-81.9647,2.095,7.27,1111122 
SCCF RECON,ioos:station:SCCF:16:1,2008-07-05T00:00:00Z,26.4345,-81.9647,1.895,7.02,1111122 
SCCF RECON,ioos:station:SCCF:16:1,2008-07-05T01:00:00Z,26.4345,-81.9647,1.843,7.42,1111122 
SCCF RECON,ioos:station:SCCF:16:1,2008-07-05T02:00:00Z,26.4345,-81.9647,1.969,7.49,1111122 
SCCF RECON,ioos:station:SCCF:16:1,2008-07-05T03:00:00Z,26.4345,-81.9647,2.281,6.82,1111122 
SCCF RECON,ioos:station:SCCF:16:1,2008-07-05T04:00:00Z,26.4345,-81.9647,2.403,7.43,1111122 
SCCF RECON,ioos:station:SCCF:16:1,2008-07-05T05:00:00Z,26.4345,-81.9647,2.548,7.04,1111122 
SCCF RECON,ioos:station:SCCF:16:1,2008-07-05T06:00:00Z,26.4345,-81.9647,2.72,7.09,1111122 
SCCF RECON,ioos:station:SCCF:16:1,2008-07-05T07:00:00Z,26.4345,-81.9647,2.672,6.7,1111122 
SCCF RECON,ioos:station:SCCF:16:1,2008-07-05T08:00:00Z,26.4345,-81.9647,2.719,6.61,1111122 
SCCF RECON,ioos:station:SCCF:16:1,2008-07-05T09:00:00Z,26.4345,-81.9647,2.684,6.55,1111122 
SCCF RECON,ioos:station:SCCF:16:1,2008-07-05T10:00:00Z,26.4345,-81.9647,2.57,6.26,1111122 
SCCF RECON,ioos:station:SCCF:16:1,2008-07-05T11:00:00Z,26.4345,-81.9647,2.485,6.33,1111122 
SCCF RECON,ioos:station:SCCF:16:1,2008-07-05T12:00:00Z,26.4345,-81.9647,2.456,6.47,1111122 
SCCF RECON,ioos:station:SCCF:16:1,2008-07-05T13:00:00Z,26.4345,-81.9647,2.472,6.36,1111122 
SCCF RECON,ioos:station:SCCF:16:1,2008-07-05T14:00:00Z,26.4345,-81.9647,2.542,6.27,1111122 
SCCF RECON,ioos:station:SCCF:16:1,2008-07-05T15:00:00Z,26.4345,-81.9647,2.676,6.6,1111122 
SCCF RECON,ioos:station:SCCF:16:1,2008-07-05T16:00:00Z,26.4345,-81.9647,2.859,6.9,1111122 
SCCF RECON,ioos:station:SCCF:16:1,2008-07-05T17:00:00Z,26.4345,-81.9647,2.949,6.82,1111122 
SCCF RECON,ioos:station:SCCF:16:1,2008-07-05T18:00:00Z,26.4345,-81.9647,2.992,6.9,1111122 
SCCF RECON,ioos:station:SCCF:16:1,2008-07-05T19:00:00Z,26.4345,-81.9647,2.981,6.91,1111122 
SCCF RECON,ioos:station:SCCF:16:1,2008-07-05T20:00:00Z,26.4345,-81.9647,2.887,6.86,1111122 
SCCF RECON,ioos:station:SCCF:16:1,2008-07-05T21:00:00Z,26.4345,-81.9647,2.812,6.97,1111122 
SCCF RECON,ioos:station:SCCF:16:1,2008-07-05T22:00:00Z,26.4345,-81.9647,2.605,6.89,1111122 
SCCF RECON,ioos:station:SCCF:16:1,2008-07-05T23:00:00Z,26.4345,-81.9647,2.282,6.9,1111122 
SCCF RECON,ioos:station:SCCF:16:1,2008-07-06T00:00:00Z,26.4345,-81.9647,2.09,6.88,1111122 
SCCF RECON,ioos:station:SCCF:16:1,2008-07-06T01:00:00Z,26.4345,-81.9647,1.929,7.2,1111122 
SCCF RECON,ioos:station:SCCF:16:1,2008-07-06T02:00:00Z,26.4345,-81.9647,1.911,6.66,1111122 
SCCF RECON,ioos:station:SCCF:16:1,2008-07-06T03:00:00Z,26.4345,-81.9647,2.078,6.67,1111122 
SCCF RECON,ioos:station:SCCF:16:1,2008-07-06T04:00:00Z,26.4345,-81.9647,2.377,6.55,1111122 
SCCF RECON,ioos:station:SCCF:16:1,2008-07-06T05:00:00Z,26.4345,-81.9647,2.552,6.45,1111122 
SCCF RECON,ioos:station:SCCF:16:1,2008-07-06T06:00:00Z,26.4345,-81.9647,2.676,6.52,1111122 
SCCF RECON,ioos:station:SCCF:16:1,2008-07-06T07:00:00Z,26.4345,-81.9647,2.764,6.47,1111122 
SCCF RECON,ioos:station:SCCF:16:1,2008-07-06T08:00:00Z,26.4345,-81.9647,2.787,6.38,1111122 
SCCF RECON,ioos:station:SCCF:16:1,2008-07-06T09:00:00Z,26.4345,-81.9647,2.737,6.62,1111122 
SCCF RECON,ioos:station:SCCF:16:1,2008-07-06T10:00:00Z,26.4345,-81.9647,2.653,6.42,1111122 
SCCF RECON,ioos:station:SCCF:16:1,2008-07-06T11:00:00Z,26.4345,-81.9647,2.552,6.13,1111122 
SCCF RECON,ioos:station:SCCF:16:1,2008-07-06T12:00:00Z,26.4345,-81.9647,2.487,6.15,1111122 
SCCF RECON,ioos:station:SCCF:16:1,2008-07-06T13:00:00Z,26.4345,-81.9647,2.401,6.26,1111122 
SCCF RECON,ioos:station:SCCF:16:1,2008-07-06T14:00:00Z,26.4345,-81.9647,2.413,6.16,1111122 
SCCF RECON,ioos:station:SCCF:16:1,2008-07-06T15:00:00Z,26.4345,-81.9647,2.51,6.14,1111122 
SCCF RECON,ioos:station:SCCF:16:1,2008-07-06T16:00:00Z,26.4345,-81.9647,2.665,6.24,1111122 
SCCF RECON,ioos:station:SCCF:16:1,2008-07-06T17:00:00Z,26.4345,-81.9647,2.815,6.66,1111122 
SCCF RECON,ioos:station:SCCF:16:1,2008-07-06T18:00:00Z,26.4345,-81.9647,2.87,6.84,1111122 
SCCF RECON,ioos:station:SCCF:16:1,2008-07-06T19:00:00Z,26.4345,-81.9647,2.902,7.05,1111122 
SCCF RECON,ioos:station:SCCF:16:1,2008-07-06T20:00:00Z,26.4345,-81.9647,2.954,6.94,1111122 
SCCF RECON,ioos:station:SCCF:16:1,2008-07-06T21:00:00Z,26.4345,-81.9647,2.812,6.81,1111122 
SCCF RECON,ioos:station:SCCF:16:1,2008-07-06T22:00:00Z,26.4345,-81.9647,2.643,6.55,1111122 
SCCF RECON,ioos:station:SCCF:16:1,2008-07-06T23:00:00Z,26.4345,-81.9647,2.536,6.5,1111122 
SCCF RECON,ioos:station:SCCF:16:1,2008-07-07T00:00:00Z,26.4345,-81.9647,2.354,6.55,1111122 
SCCF RECON,ioos:station:SCCF:16:1,2008-07-07T01:00:00Z,26.4345,-81.9647,2.191,6.34,1111122 
SCCF RECON,ioos:station:SCCF:16:1,2008-07-07T02:00:00Z,26.4345,-81.9647,2.107,6.16,1111122 
SCCF RECON,ioos:station:SCCF:16:1,2008-07-07T03:00:00Z,26.4345,-81.9647,2.073,6.11,1111122 
SCCF RECON,ioos:station:SCCF:16:1,2008-07-07T04:00:00Z,26.4345,-81.9647,2.262,5.9,1111122 
SCCF RECON,ioos:station:SCCF:16:1,2008-07-07T05:00:00Z,26.4345,-81.9647,2.513,5.97,1111122 
SCCF RECON,ioos:station:SCCF:16:1,2008-07-07T06:00:00Z,26.4345,-81.9647,2.69,6.02,1111122 
SCCF RECON,ioos:station:SCCF:16:1,2008-07-07T07:00:00Z,26.4345,-81.9647,2.758,5.96,1111122 
SCCF RECON,ioos:station:SCCF:16:1,2008-07-07T08:00:00Z,26.4345,-81.9647,2.81,5.99,1111122 
SCCF RECON,ioos:station:SCCF:16:1,2008-07-07T09:00:00Z,26.4345,-81.9647,2.802,5.95,1111122 
SCCF RECON,ioos:station:SCCF:16:1,2008-07-07T10:00:00Z,26.4345,-81.9647,2.741,5.95,1111122 
SCCF RECON,ioos:station:SCCF:16:1,2008-07-07T11:00:00Z,26.4345,-81.9647,2.634,5.66,1111122 
SCCF RECON,ioos:station:SCCF:16:1,2008-07-07T12:00:00Z,26.4345,-81.9647,2.544,5.78,1111122 
SCCF RECON,ioos:station:SCCF:16:1,2008-07-07T13:00:00Z,26.4345,-81.9647,2.507,5.8,1111122 
SCCF RECON,ioos:station:SCCF:16:1,2008-07-07T14:00:00Z,26.4345,-81.9647,2.463,5.77,1111122 
SCCF RECON,ioos:station:SCCF:16:1,2008-07-07T15:00:00Z,26.4345,-81.9647,2.468,5.7,1111122 
SCCF RECON,ioos:station:SCCF:16:1,2008-07-07T16:00:00Z,26.4345,-81.9647,2.539,5.8,1111122 
SCCF RECON,ioos:station:SCCF:16:1,2008-07-07T17:00:00Z,26.4345,-81.9647,2.65,5.98,1111122 
SCCF RECON,ioos:station:SCCF:16:1,2008-07-07T18:00:00Z,26.4345,-81.9647,2.75,6.15,1111122 
SCCF RECON,ioos:station:SCCF:16:1,2008-07-07T19:00:00Z,26.4345,-81.9647,2.795,6.53,1111122 
SCCF RECON,ioos:station:SCCF:16:1,2008-07-07T20:00:00Z,26.4345,-81.9647,2.862,6.7,1111122 
SCCF RECON,ioos:station:SCCF:16:1,2008-07-07T21:00:00Z,26.4345,-81.9647,2.754,6.69,1111122 
SCCF RECON,ioos:station:SCCF:16:1,2008-07-07T22:00:00Z,26.4345,-81.9647,2.769,6.58,1111122 
SCCF RECON,ioos:station:SCCF:16:1,2008-07-07T23:00:00Z,26.4345,-81.9647,2.658,6.31,1111122 
SCCF RECON,ioos:station:SCCF:16:1,2008-07-08T00:00:00Z,26.4345,-81.9647,2.515,6.43,1111122 
SCCF RECON,ioos:station:SCCF:16:1,2008-07-08T01:00:00Z,26.4345,-81.9647,2.4,6.48,1111122 
SCCF RECON,ioos:station:SCCF:16:1,2008-07-08T02:00:00Z,26.4345,-81.9647,2.374,6.26,1111122 
SCCF RECON,ioos:station:SCCF:16:1,2008-07-08T03:00:00Z,26.4345,-81.9647,2.149,6.21,1111122 
SCCF RECON,ioos:station:SCCF:16:1,2008-07-08T04:00:00Z,26.4345,-81.9647,2.083,6.24,1111122 
SCCF RECON,ioos:station:SCCF:16:1,2008-07-08T05:00:00Z,26.4345,-81.9647,2.336,5.98,1111122 
SCCF RECON,ioos:station:SCCF:16:1,2008-07-08T06:00:00Z,26.4345,-81.9647,2.569,6.02,1111122 
SCCF RECON,ioos:station:SCCF:16:1,2008-07-08T07:00:00Z,26.4345,-81.9647,2.669,6.0,1111122 
SCCF RECON,ioos:station:SCCF:16:1,2008-07-08T08:00:00Z,26.4345,-81.9647,2.745,5.89,1111122 
SCCF RECON,ioos:station:SCCF:16:1,2008-07-08T09:00:00Z,26.4345,-81.9647,2.788,5.91,1111122 
SCCF RECON,ioos:station:SCCF:16:1,2008-07-08T10:00:00Z,26.4345,-81.9647,2.746,5.92,1111122 
SCCF RECON,ioos:station:SCCF:16:1,2008-07-08T11:00:00Z,26.4345,-81.9647,2.722,5.92,1111122 
SCCF RECON,ioos:station:SCCF:16:1,2008-07-08T12:00:00Z,26.4345,-81.9647,2.654,5.7,1111122 
SCCF RECON,ioos:station:SCCF:16:1,2008-07-08T13:00:00Z,26.4345,-81.9647,2.52,5.81,1111122 
SCCF RECON,ioos:station:SCCF:16:1,2008-07-08T14:00:00Z,26.4345,-81.9647,2.396,5.84,1111122 
SCCF RECON,ioos:station:SCCF:16:1,2008-07-08T15:00:00Z,26.4345,-81.9647,2.348,5.8,1111122 
SCCF RECON,ioos:station:SCCF:16:1,2008-07-08T16:00:00Z,26.4345,-81.9647,2.364,5.87,1111122 
SCCF RECON,ioos:station:SCCF:16:1,2008-07-08T17:00:00Z,26.4345,-81.9647,2.455,5.99,1111122 
SCCF RECON,ioos:station:SCCF:16:1,2008-07-08T18:00:00Z,26.4345,-81.9647,2.57,6.09,1111122 
SCCF RECON,ioos:station:SCCF:16:1,2008-07-08T19:00:00Z,26.4345,-81.9647,2.713,6.42,1111122 
SCCF RECON,ioos:station:SCCF:16:1,2008-07-08T20:00:00Z,26.4345,-81.9647,2.742,6.73,1111122 
SCCF RECON,ioos:station:SCCF:16:1,2008-07-08T21:00:00Z,26.4345,-81.9647,2.787,6.82,1111122 
SCCF RECON,ioos:station:SCCF:16:1,2008-07-08T22:00:00Z,26.4345,-81.9647,2.767,6.66,1111122 
SCCF RECON,ioos:station:SCCF:16:1,2008-07-08T23:00:00Z,26.4345,-81.9647,2.708,6.36,1111122 
SCCF RECON,ioos:station:SCCF:16:1,2008-07-09T00:00:00Z,26.4345,-81.9647,2.622,6.56,1111122 
SCCF RECON,ioos:station:SCCF:16:1,2008-07-09T01:00:00Z,26.4345,-81.9647,2.51,6.32,1111122 
SCCF RECON,ioos:station:SCCF:16:1,2008-07-09T02:00:00Z,26.4345,-81.9647,2.38,6.16,1111122 
SCCF RECON,ioos:station:SCCF:16:1,2008-07-09T03:00:00Z,26.4345,-81.9647,2.322,5.94,1111122 
SCCF RECON,ioos:station:SCCF:16:1,2008-07-09T04:00:00Z,26.4345,-81.9647,2.344,5.84,1111122 
SCCF RECON,ioos:station:SCCF:16:1,2008-07-09T05:00:00Z,26.4345,-81.9647,2.394,5.79,1111122 
SCCF RECON,ioos:station:SCCF:16:1,2008-07-09T06:00:00Z,26.4345,-81.9647,2.531,5.81,1111122 
SCCF RECON,ioos:station:SCCF:16:1,2008-07-09T07:00:00Z,26.4345,-81.9647,2.69,5.86,1111122 
SCCF RECON,ioos:station:SCCF:16:1,2008-07-09T08:00:00Z,26.4345,-81.9647,2.755,5.89,1111122 
SCCF RECON,ioos:station:SCCF:16:1,2008-07-09T09:00:00Z,26.4345,-81.9647,2.775,5.98,1111122 
SCCF RECON,ioos:station:SCCF:16:1,2008-07-09T10:00:00Z,26.4345,-81.9647,2.774,5.87,1111122 
SCCF RECON,ioos:station:SCCF:16:1,2008-07-09T11:00:00Z,26.4345,-81.9647,2.757,5.96,1111122 
SCCF RECON,ioos:station:SCCF:16:1,2008-07-09T12:00:00Z,26.4345,-81.9647,2.708,5.92,1111122 
SCCF RECON,ioos:station:SCCF:16:1,2008-07-09T13:00:00Z,26.4345,-81.9647,2.621,5.76,1111122 
SCCF RECON,ioos:station:SCCF:16:1,2008-07-09T14:00:00Z,26.4345,-81.9647,2.522,5.76,1111122 
SCCF RECON,ioos:station:SCCF:16:1,2008-07-09T15:00:00Z,26.4345,-81.9647,2.41,5.81,1111122 
SCCF RECON,ioos:station:SCCF:16:1,2008-07-09T16:00:00Z,26.4345,-81.9647,2.332,5.77,1111122 
SCCF RECON,ioos:station:SCCF:16:1,2008-07-09T17:00:00Z,26.4345,-81.9647,2.303,5.94,1111122 
SCCF RECON,ioos:station:SCCF:16:1,2008-07-09T18:00:00Z,26.4345,-81.9647,2.381,5.97,1111122 
SCCF RECON,ioos:station:SCCF:16:1,2008-07-09T19:00:00Z,26.4345,-81.9647,2.509,5.93,1111122 
SCCF RECON,ioos:station:SCCF:16:1,2008-07-09T20:00:00Z,26.4345,-81.9647,2.602,6.74,1111122 
SCCF RECON,ioos:station:SCCF:16:1,2008-07-09T21:00:00Z,26.4345,-81.9647,2.676,6.56,1111122 
SCCF RECON,ioos:station:SCCF:16:1,2008-07-09T22:00:00Z,26.4345,-81.9647,2.675,6.62,1111122 
SCCF RECON,ioos:station:SCCF:16:1,2008-07-09T23:00:00Z,26.4345,-81.9647,2.712,6.62,1111122 
SCCF RECON,ioos:station:SCCF:16:1,2008-07-10T00:00:00Z,26.4345,-81.9647,2.602,6.34,1111122 
SCCF RECON,ioos:station:SCCF:16:1,2008-07-10T01:00:00Z,26.4345,-81.9647,2.622,6.08,1111122 
SCCF RECON,ioos:station:SCCF:16:1,2008-07-10T02:00:00Z,26.4345,-81.9647,2.524,6.22,1111122 
SCCF RECON,ioos:station:SCCF:16:1,2008-07-10T03:00:00Z,26.4345,-81.9647,2.49,6.16,1111122 
SCCF RECON,ioos:station:SCCF:16:1,2008-07-10T04:00:00Z,26.4345,-81.9647,2.504,6.01,1111122 
SCCF RECON,ioos:station:SCCF:16:1,2008-07-10T05:00:00Z,26.4345,-81.9647,2.485,5.99,1111122 
SCCF RECON,ioos:station:SCCF:16:1,2008-07-10T06:00:00Z,26.4345,-81.9647,2.572,5.92,1111122 
SCCF RECON,ioos:station:SCCF:16:1,2008-07-10T07:00:00Z,26.4345,-81.9647,2.632,6.06,1111122 
SCCF RECON,ioos:station:SCCF:16:1,2008-07-10T08:00:00Z,26.4345,-81.9647,2.684,6.02,1111122 
SCCF RECON,ioos:station:SCCF:16:1,2008-07-10T09:00:00Z,26.4345,-81.9647,2.781,5.94,1111122 
SCCF RECON,ioos:station:SCCF:16:1,2008-07-10T10:00:00Z,26.4345,-81.9647,2.853,6.12,1111122 
SCCF RECON,ioos:station:SCCF:16:1,2008-07-10T11:00:00Z,26.4345,-81.9647,2.862,5.95,1111122 
SCCF RECON,ioos:station:SCCF:16:1,2008-07-10T12:00:00Z,26.4345,-81.9647,2.831,5.74,1111122 
SCCF RECON,ioos:station:SCCF:16:1,2008-07-10T13:00:00Z,26.4345,-81.9647,2.732,5.63,1111122 
SCCF RECON,ioos:station:SCCF:16:1,2008-07-10T14:00:00Z,26.4345,-81.9647,2.626,5.87,1111122 
SCCF RECON,ioos:station:SCCF:16:1,2008-07-10T15:00:00Z,26.4345,-81.9647,2.52,5.88,1111122 
SCCF RECON,ioos:station:SCCF:16:1,2008-07-10T16:00:00Z,26.4345,-81.9647,2.386,5.74,1111122 
SCCF RECON,ioos:station:SCCF:16:1,2008-07-10T17:00:00Z,26.4345,-81.9647,2.327,5.91,1111122 
SCCF RECON,ioos:station:SCCF:16:1,2008-07-10T18:00:00Z,26.4345,-81.9647,2.33,6.04,1111122 
SCCF RECON,ioos:station:SCCF:16:1,2008-07-10T19:00:00Z,26.4345,-81.9647,2.374,6.22,1111122 
SCCF RECON,ioos:station:SCCF:16:1,2008-07-10T20:00:00Z,26.4345,-81.9647,2.46,6.37,1111122 
SCCF RECON,ioos:station:SCCF:16:1,2008-07-10T21:00:00Z,26.4345,-81.9647,2.541,7.0,1111122 
SCCF RECON,ioos:station:SCCF:16:1,2008-07-10T22:00:00Z,26.4345,-81.9647,2.569,7.05,1111122 
SCCF RECON,ioos:station:SCCF:16:1,2008-07-10T23:00:00Z,26.4345,-81.9647,2.651,7.11,1111122 
SCCF RECON,ioos:station:SCCF:16:1,2008-07-11T00:00:00Z,26.4345,-81.9647,2.661,7.1,1111122 
SCCF RECON,ioos:station:SCCF:16:1,2008-07-11T01:00:00Z,26.4345,-81.9647,2.673,6.94,1111122 
SCCF RECON,ioos:station:SCCF:16:1,2008-07-11T02:00:00Z,26.4345,-81.9647,2.639,6.5,1111122 
SCCF RECON,ioos:station:SCCF:16:1,2008-07-11T03:00:00Z,26.4345,-81.9647,2.631,6.22,1111122 
SCCF RECON,ioos:station:SCCF:16:1,2008-07-11T04:00:00Z,26.4345,-81.9647,2.593,6.09,1111122 
SCCF RECON,ioos:station:SCCF:16:1,2008-07-11T05:00:00Z,26.4345,-81.9647,2.58,5.87,1111122 
SCCF RECON,ioos:station:SCCF:16:1,2008-07-11T06:00:00Z,26.4345,-81.9647,2.574,5.83,1111122 
SCCF RECON,ioos:station:SCCF:16:1,2008-07-11T07:00:00Z,26.4345,-81.9647,2.628,6.02,1111122 
SCCF RECON,ioos:station:SCCF:16:1,2008-07-11T08:00:00Z,26.4345,-81.9647,2.686,6.26,1111122 
SCCF RECON,ioos:station:SCCF:16:1,2008-07-11T09:00:00Z,26.4345,-81.9647,2.803,6.21,1111122 
SCCF RECON,ioos:station:SCCF:16:1,2008-07-11T10:00:00Z,26.4345,-81.9647,2.855,6.17,1111122 
SCCF RECON,ioos:station:SCCF:16:1,2008-07-11T11:00:00Z,26.4345,-81.9647,2.848,6.19,1111122 
SCCF RECON,ioos:station:SCCF:16:1,2008-07-11T12:00:00Z,26.4345,-81.9647,2.849,6.1,1111122 
SCCF RECON,ioos:station:SCCF:16:1,2008-07-11T13:00:00Z,26.4345,-81.9647,2.831,6.16,1111122 
SCCF RECON,ioos:station:SCCF:16:1,2008-07-11T14:00:00Z,26.4345,-81.9647,2.731,6.03,1111122 
SCCF RECON,ioos:station:SCCF:16:1,2008-07-11T15:00:00Z,26.4345,-81.9647,2.626,6.22,1111122 
SCCF RECON,ioos:station:SCCF:16:1,2008-07-11T16:00:00Z,26.4345,-81.9647,2.48,6.26,1111122 
SCCF RECON,ioos:station:SCCF:16:1,2008-07-11T17:00:00Z,26.4345,-81.9647,2.361,6.23,1111122 
SCCF RECON,ioos:station:SCCF:16:1,2008-07-11T18:00:00Z,26.4345,-81.9647,2.291,6.28,1111122 
SCCF RECON,ioos:station:SCCF:16:1,2008-07-11T19:00:00Z,26.4345,-81.9647,2.262,6.5,1111122 
SCCF RECON,ioos:station:SCCF:16:1,2008-07-11T20:00:00Z,26.4345,-81.9647,2.296,6.67,1111122 